Change the Weather History Date:

Friday, October 28, 2011

  Actual Average Record
Temperature  
Mean Temperature 60 °F -  
Max Temperature 68 °F 65 °F 83 °F (1984)
Min Temperature 53 °F 54 °F 34 °F (1979)
Degree Days  
Heating Degree Days 4    
Growing Degree Days 10 (Base 50)    
Moisture  
Dew Point 46 °F    
Average Humidity 69    
Maximum Humidity 88    
Minimum Humidity 59    
Precipitation  
Precipitation 0.00 in - - ()
Sea Level Pressure  
Sea Level Pressure 30.06 in    
Wind  
Wind Speed 17 mph (NNE)    
Max Wind Speed 25 mph    
Max Gust Speed 31 mph    
Visibility 10 miles    
Events      
Averages and records for this station are not official NWS values.
T = Trace of Precipitation, MM = Missing Value Source: NWS Daily Summary

Daily Weather History Graph

Daily Weather History Graph

Search for Another Location

Airport or City:

Trip Planner

Search our weather history database for the weather conditions in past years. The results will help you decide how hot, cold, wet, or windy it might be!

Date:

Astronomy

Oct. 28, 2011 Rise Set
Actual Time 7:21 AM EDT 6:11 PM EDT
Civil Twilight 6:54 AM EDT 6:37 PM EDT
Nautical Twilight 6:24 AM EDT 7:07 PM EDT
Astronomical Twilight 5:54 AM EDT 7:37 PM EDT
Moon 9:28 AM EDT 7:38 PM EDT
Length of Visible Light 11h 43m
Length of Day
10h 50m
Waxing Crescent, 5% of the Moon is Illuminated
Oct 28
Waxing Crescent
Nov 2
First Quarter
Nov 10
Full
Nov 18
Last Quarter
Nov 25
New

Hourly Weather History & Observations

Time (EDT) Temp. Dew Point Humidity Pressure Visibility Wind Dir Wind Speed Gust Speed Precip Events Conditions
12:35 AM 68.0 °F 53.6 °F 60% 29.87 in 10.0 mi West 9.2 mph - N/A   Overcast
12:55 AM 62.6 °F 53.6 °F 72% 29.92 in 10.0 mi North 25.3 mph 29.9 mph N/A   Overcast
1:15 AM 60.8 °F 51.8 °F 72% 29.94 in 10.0 mi NNE 23.0 mph 29.9 mph N/A   Overcast
1:35 AM 60.8 °F 50.0 °F 68% 29.95 in 10.0 mi NNE 21.9 mph 31.1 mph N/A   Overcast
1:55 AM 59.0 °F 50.0 °F 72% 29.96 in 10.0 mi NNE 20.7 mph 31.1 mph N/A   Mostly Cloudy
2:15 AM 59.0 °F 48.2 °F 67% 29.96 in 10.0 mi NNE 23.0 mph 29.9 mph N/A   Mostly Cloudy
2:35 AM 59.0 °F 48.2 °F 67% 29.97 in 10.0 mi NNE 19.6 mph 29.9 mph N/A   Overcast
2:55 AM 59.0 °F 46.4 °F 63% 29.98 in 10.0 mi NNE 18.4 mph 27.6 mph N/A   Overcast
3:15 AM 59.0 °F 46.4 °F 63% 29.99 in 10.0 mi NNE 18.4 mph 28.8 mph N/A   Overcast
3:35 AM 57.2 °F 46.4 °F 67% 30.01 in 10.0 mi NNE 17.3 mph 24.2 mph N/A   Overcast
3:55 AM 57.2 °F 46.4 °F 67% 30.01 in 10.0 mi NNE 17.3 mph 24.2 mph N/A   Overcast
4:15 AM 57.2 °F 44.6 °F 63% 30.01 in 10.0 mi NNE 20.7 mph 27.6 mph N/A   Overcast
4:35 AM 55.4 °F 44.6 °F 67% 30.01 in 10.0 mi NNE 21.9 mph 29.9 mph N/A   Overcast
4:55 AM 55.4 °F 44.6 °F 67% 30.03 in 10.0 mi NNE 19.6 mph 25.3 mph N/A   Overcast
5:15 AM 55.4 °F 42.8 °F 63% 30.04 in 10.0 mi NNE 18.4 mph 26.5 mph N/A   Overcast
5:35 AM 53.6 °F 41.0 °F 62% 30.04 in 10.0 mi NNE 19.6 mph 26.5 mph N/A   Overcast
5:55 AM 53.6 °F 42.8 °F 67% 30.05 in 10.0 mi NNE 16.1 mph 25.3 mph N/A   Overcast
6:15 AM 55.4 °F 44.6 °F 67% 30.05 in 10.0 mi North 16.1 mph 24.2 mph N/A   Overcast
6:35 AM 55.4 °F 42.8 °F 63% 30.05 in 10.0 mi NNE 15.0 mph 25.3 mph N/A   Overcast
6:55 AM 55.4 °F 42.8 °F 63% 30.05 in 10.0 mi NNE 19.6 mph 25.3 mph N/A   Overcast
7:15 AM 55.4 °F 44.6 °F 67% 30.06 in 10.0 mi NNE 18.4 mph 25.3 mph N/A   Overcast
7:35 AM 55.4 °F 44.6 °F 67% 30.07 in 10.0 mi NNE 18.4 mph 25.3 mph N/A   Overcast
7:55 AM 55.4 °F 44.6 °F 67% 30.08 in 10.0 mi NNE 13.8 mph 21.9 mph N/A   Overcast
8:15 AM 55.4 °F 44.6 °F 67% 30.08 in 10.0 mi NNE 16.1 mph 23.0 mph N/A   Overcast
8:35 AM 55.4 °F 44.6 °F 67% 30.10 in 10.0 mi NNE 15.0 mph 23.0 mph N/A   Overcast
8:55 AM 55.4 °F 44.6 °F 67% 30.11 in 10.0 mi NE 15.0 mph 23.0 mph N/A   Overcast
9:15 AM 55.4 °F 44.6 °F 67% 30.11 in 10.0 mi NNE 12.7 mph 20.7 mph N/A   Overcast
9:35 AM 55.4 °F 44.6 °F 67% 30.11 in 10.0 mi NNE 16.1 mph 20.7 mph N/A   Overcast
9:55 AM 55.4 °F 44.6 °F 67% 30.12 in 10.0 mi NE 13.8 mph 21.9 mph N/A   Overcast
10:15 AM 55.4 °F 44.6 °F 67% 30.12 in 10.0 mi NE 13.8 mph 20.7 mph N/A   Overcast
10:35 AM 55.4 °F 44.6 °F 67% 30.12 in 10.0 mi NNE 15.0 mph - N/A   Overcast
10:55 AM 55.4 °F 44.6 °F 67% 30.12 in 10.0 mi NE 13.8 mph 21.9 mph N/A   Overcast
11:15 AM 55.4 °F 44.6 °F 67% 30.12 in 10.0 mi NE 17.3 mph 21.9 mph N/A   Overcast
11:35 AM 57.2 °F 44.6 °F 63% 30.11 in 10.0 mi NE 16.1 mph 21.9 mph N/A   Overcast
11:55 AM 59.0 °F 44.6 °F 59% 30.11 in 10.0 mi NE 12.7 mph 20.7 mph N/A   Overcast
12:15 PM 59.0 °F 44.6 °F 59% 30.11 in 10.0 mi NNE 13.8 mph 17.3 mph N/A   Overcast
12:35 PM 57.2 °F 46.4 °F 67% 30.11 in 10.0 mi NE 13.8 mph 19.6 mph N/A   Overcast
12:55 PM 57.2 °F 46.4 °F 67% 30.10 in 10.0 mi NNE 15.0 mph 20.7 mph N/A   Overcast
1:15 PM 57.2 °F 46.4 °F 67% 30.10 in 10.0 mi NE 11.5 mph 19.6 mph N/A   Overcast
1:35 PM 55.4 °F 48.2 °F 77% 30.09 in 7.0 mi NE 12.7 mph 20.7 mph N/A   Overcast
1:55 PM 53.6 °F 50.0 °F 88% 30.09 in 4.0 mi NNE 13.8 mph 20.7 mph N/A   Light Drizzle
2:15 PM 53.6 °F 50.0 °F 88% 30.09 in 5.0 mi NNE 16.1 mph 24.2 mph N/A   Light Drizzle
2:35 PM 53.6 °F 50.0 °F 88% 30.08 in 5.0 mi NE 12.7 mph 20.7 mph N/A   Light Drizzle
2:55 PM 55.4 °F 50.0 °F 82% 30.08 in 7.0 mi NE 12.7 mph 23.0 mph N/A   Overcast
3:15 PM 55.4 °F 48.2 °F 77% 30.08 in 10.0 mi NE 15.0 mph - N/A   Overcast
3:35 PM 55.4 °F 46.4 °F 72% 30.08 in 10.0 mi NE 13.8 mph 18.4 mph N/A   Overcast
3:55 PM 55.4 °F 46.4 °F 72% 30.08 in 10.0 mi NE 13.8 mph 20.7 mph N/A   Overcast
4:15 PM 55.4 °F 46.4 °F 72% 30.08 in 10.0 mi NE 16.1 mph 23.0 mph N/A   Overcast
4:35 PM 55.4 °F 48.2 °F 77% 30.08 in 10.0 mi NE 15.0 mph 19.6 mph N/A   Overcast
4:55 PM 55.4 °F 48.2 °F 77% 30.08 in 10.0 mi NE 13.8 mph 18.4 mph N/A   Light Drizzle
5:15 PM 53.6 °F 48.2 °F 82% 30.08 in 10.0 mi NE 15.0 mph 20.7 mph N/A   Overcast
5:35 PM 53.6 °F 48.2 °F 82% 30.07 in 10.0 mi NE 16.1 mph 19.6 mph N/A   Overcast
5:55 PM 53.6 °F 50.0 °F 88% 30.07 in 10.0 mi NE 15.0 mph 20.7 mph N/A   Overcast
6:15 PM 53.6 °F 50.0 °F 88% 30.07 in 10.0 mi ENE 16.1 mph 20.7 mph N/A   Overcast
6:35 PM 55.4 °F 50.0 °F 82% 30.07 in 10.0 mi ENE 16.1 mph 23.0 mph N/A   Overcast
6:55 PM 55.4 °F 50.0 °F 82% 30.08 in 10.0 mi NE 18.4 mph 24.2 mph N/A   Overcast
7:15 PM 55.4 °F 50.0 °F 82% 30.07 in 10.0 mi NE 17.3 mph - N/A   Overcast
7:35 PM 55.4 °F 50.0 °F 82% 30.07 in 10.0 mi NE 16.1 mph 21.9 mph N/A   Overcast
7:55 PM 55.4 °F 50.0 °F 82% 30.07 in 10.0 mi NE 20.7 mph 26.5 mph N/A   Overcast
8:15 PM 57.2 °F 50.0 °F 77% 30.06 in 10.0 mi ENE 18.4 mph 23.0 mph N/A   Overcast
8:35 PM 57.2 °F 50.0 °F 77% 30.05 in 10.0 mi ENE 18.4 mph 26.5 mph N/A   Overcast
8:55 PM 57.2 °F 50.0 °F 77% 30.05 in 10.0 mi ENE 16.1 mph 24.2 mph N/A   Overcast
9:15 PM 59.0 °F 51.8 °F 77% 30.05 in 10.0 mi ENE 19.6 mph 24.2 mph N/A   Overcast
9:35 PM 59.0 °F 50.0 °F 72% 30.05 in 10.0 mi ENE 18.4 mph 24.2 mph N/A   Overcast
9:55 PM 59.0 °F 51.8 °F 77% 30.03 in 10.0 mi ENE 19.6 mph 25.3 mph N/A   Overcast
10:15 PM 59.0 °F 51.8 °F 77% 30.04 in 10.0 mi ENE 16.1 mph 29.9 mph N/A   Overcast
10:35 PM 59.0 °F 51.8 °F 77% 30.02 in 10.0 mi ENE 18.4 mph 24.2 mph N/A   Overcast
10:55 PM 59.0 °F 51.8 °F 77% 30.01 in 10.0 mi ENE 19.6 mph 27.6 mph N/A   Overcast
11:15 PM 60.8 °F 51.8 °F 72% 30.01 in 10.0 mi ENE 16.1 mph 24.2 mph N/A   Overcast
11:35 PM 60.8 °F 51.8 °F 72% 30.00 in 10.0 mi ENE 18.4 mph 25.3 mph N/A   Overcast
11:55 PM 60.8 °F 53.6 °F 77% 29.98 in 10.0 mi ENE 16.1 mph - N/A   Overcast